South St. Paul, MN

7:52 AM CST on December 15, 2019 (GMT -0600)
South Saint Paul Municipal-Fleming

Weather History for KSGS - November, 2019

Change the Weather History Date:

Saturday, November 16, 2019

  Actual Average (KSTP) Record (KSTP)
Temperature  
Mean Temperature 38 °F -  
Max Temperature 45 °F 40 °F 64 °F (2001)
Min Temperature 32 °F 25 °F 9 °F (1997)
Degree Days  
Heating Degree Days 26    
Moisture  
Dew Point 30 °F    
Average Humidity 74    
Maximum Humidity 85    
Minimum Humidity 57    
Precipitation  
Precipitation 0.00 in - - ()
Sea Level Pressure  
Sea Level Pressure 30.12 in    
Wind  
Wind Speed 7 mph (SSE)    
Max Wind Speed 15 mph    
Max Gust Speed 22 mph    
Visibility 9 miles    
Events      
Averages and records for this station are not official NWS values.
T = Trace of Precipitation, MM = Missing Value Source: NWS Daily Summary

Daily Weather History Graph

Daily Weather History Graph

Search for Another Location

Airport or City:

Astronomy

Nov. 16, 2019 Rise Set
Actual Time 7:10 AM CST 4:42 PM CST
Civil Twilight 6:38 AM CST 5:14 PM CST
Nautical Twilight 6:03 AM CST 5:50 PM CST
Astronomical Twilight 5:28 AM CST 6:24 PM CST
Moon 8:11 PM CST (11/16) 11:09 AM CST (11/16)
Length of Visible Light 10h 35m
Length of Day
9h 32m
Waning Gibbous, 82% of the Moon is Illuminated
Nov 16
Waning Gibbous
Nov 19
Last Quarter
Nov 26
New
Dec 4
First Quarter
Dec 11
Full

Hourly Weather History & Observations

Time (CST) Temp. Windchill Dew Point Humidity Pressure Visibility Wind Dir Wind Speed Gust Speed Precip Events Conditions
12:15 AM 32.7 °F 27.3 °F 21.9 °F 64% 30.28 in 10.0 mi SE 5.8 mph - N/A   Clear
12:35 AM 32.9 °F 27.5 °F 23.0 °F 67% 30.28 in 10.0 mi SE 5.8 mph - N/A   Clear
12:55 AM 32.9 °F 27.5 °F 23.9 °F 69% 30.27 in 10.0 mi SSE 5.8 mph - N/A   Clear
12:56 AM 32.9 °F 27.5 °F 24.1 °F 70% 30.27 in 10.0 mi SE 5.8 mph - N/A   Clear
1:15 AM 32.5 °F 28.1 °F 25.0 °F 74% 30.27 in 7.0 mi SE 4.6 mph - N/A   Clear
1:35 AM 32.4 °F 29.1 °F 25.9 °F 77% 30.26 in 10.0 mi SE 3.5 mph - N/A   Clear
1:36 AM 32.4 °F 29.1 °F 26.1 °F 78% 30.26 in 10.0 mi SE 3.5 mph - N/A   Clear
1:55 AM 32.4 °F 27.9 °F 27.0 °F 80% 30.26 in 10.0 mi SSE 4.6 mph - N/A   Clear
1:56 AM 32.4 °F 27.9 °F 27.0 °F 80% 30.26 in 10.0 mi SE 4.6 mph - N/A   Clear
2:15 AM 32.7 °F 27.3 °F 27.7 °F 82% 30.26 in 10.0 mi SE 5.8 mph - N/A   Clear
2:16 AM 32.7 °F 28.3 °F 27.7 °F 82% 30.26 in 10.0 mi SE 4.6 mph - N/A   Clear
2:35 AM 32.7 °F 29.6 °F 28.0 °F 83% 30.25 in 10.0 mi SE 3.5 mph - N/A   Clear
2:36 AM 32.5 °F 28.1 °F 28.0 °F 83% 30.25 in 7.0 mi SE 4.6 mph - N/A   Clear
2:55 AM 32.9 °F 28.5 °F 28.8 °F 85% 30.24 in 7.0 mi SE 4.6 mph - N/A   Clear
3:15 AM 33.4 °F 29.1 °F 29.1 °F 84% 30.24 in 10.0 mi SSE 4.6 mph - N/A   Clear
3:35 AM 33.4 °F 29.1 °F 29.1 °F 84% 30.23 in 10.0 mi SSE 4.6 mph - N/A   Clear
3:55 AM 33.6 °F 28.4 °F 29.3 °F 84% 30.22 in 10.0 mi SSE 5.8 mph - N/A   Clear
4:15 AM 33.8 °F 27.7 °F 29.3 °F 84% 30.22 in 10.0 mi SSE 6.9 mph - N/A   Clear
4:35 AM 34.0 °F 28.8 °F 29.3 °F 83% 30.22 in 7.0 mi SE 5.8 mph - N/A   Clear
4:36 AM 34.0 °F 28.8 °F 29.3 °F 83% 30.22 in 7.0 mi SSE 5.8 mph - N/A   Clear
4:55 AM 33.8 °F 27.7 °F 29.5 °F 84% 30.22 in 10.0 mi SE 6.9 mph - N/A   Clear
4:56 AM 34.0 °F 28.0 °F 29.5 °F 84% 30.22 in 10.0 mi SE 6.9 mph - N/A   Clear
5:15 AM 34.0 °F 29.8 °F 29.3 °F 83% 30.21 in 10.0 mi SSE 4.6 mph - N/A   Clear
5:35 AM 34.0 °F 27.2 °F 29.3 °F 83% 30.21 in 10.0 mi SSE 8.1 mph - N/A   Clear
5:55 AM 33.8 °F 27.7 °F 29.3 °F 84% 30.21 in 10.0 mi SSE 6.9 mph - N/A   Clear
5:56 AM 33.8 °F 27.7 °F 29.3 °F 84% 30.21 in 10.0 mi SSE 6.9 mph - N/A   Clear
6:35 AM 33.4 °F 26.6 °F 29.1 °F 84% 30.21 in 7.0 mi SSE 8.1 mph - N/A   Clear
6:55 AM 33.4 °F 26.6 °F 29.1 °F 84% 30.21 in 10.0 mi SSE 8.1 mph - N/A   Clear
7:15 AM 33.3 °F 26.4 °F 28.9 °F 84% 30.21 in 10.0 mi SSE 8.1 mph - N/A   Clear
7:35 AM 33.4 °F 25.4 °F 28.9 °F 84% 30.21 in 7.0 mi SSE 10.4 mph - N/A   Clear
7:36 AM 33.4 °F 25.9 °F 28.9 °F 84% 30.21 in 7.0 mi SSE 9.2 mph - N/A   Clear
7:55 AM 33.8 °F 27.7 °F 28.9 °F 82% 30.20 in 7.0 mi SSE 6.9 mph - N/A   Clear
7:56 AM 33.8 °F 27.7 °F 28.9 °F 82% 30.20 in 7.0 mi SSE 6.9 mph - N/A   Clear
8:15 AM 34.0 °F 27.2 °F 28.8 °F 81% 30.20 in 7.0 mi SSE 8.1 mph - N/A   Clear
8:16 AM 34.0 °F 28.0 °F 28.8 °F 81% 30.20 in 7.0 mi SSE 6.9 mph - N/A   Clear
8:35 AM 34.2 °F 26.8 °F 28.8 °F 81% 30.20 in 7.0 mi SSE 9.2 mph - N/A   Clear
8:55 AM 34.7 °F 28.1 °F 28.4 °F 78% 30.20 in 10.0 mi SSE 8.1 mph - N/A   Clear
8:56 AM 34.7 °F 28.1 °F 28.4 °F 78% 30.20 in 10.0 mi SSE 8.1 mph - N/A   Clear
9:15 AM 35.4 °F 27.8 °F 28.4 °F 76% 30.19 in 7.0 mi SSE 10.4 mph 16.1 mph N/A   Clear
9:35 AM 37.2 °F 30.0 °F 28.6 °F 71% 30.17 in 10.0 mi SSE 10.4 mph 19.6 mph N/A   Clear
9:55 AM 36.9 °F 28.2 °F 28.4 °F 71% 30.16 in 10.0 mi SSE 13.8 mph 19.6 mph N/A   Clear
9:56 AM 36.9 °F 28.7 °F 28.4 °F 71% 30.16 in 10.0 mi SSE 12.7 mph 19.6 mph N/A   Clear
10:15 AM 37.4 °F 30.3 °F 28.4 °F 70% 30.18 in 10.0 mi SSE 10.4 mph - N/A   Clear
10:35 AM 38.1 °F 31.7 °F 28.8 °F 69% 30.17 in 10.0 mi SSE 9.2 mph - N/A   Clear
10:36 AM 38.3 °F 31.4 °F 28.9 °F 69% 30.17 in 10.0 mi SSE 10.4 mph - N/A   Clear
10:55 AM 40.1 °F 33.2 °F 29.1 °F 65% 30.16 in 10.0 mi SSE 11.5 mph 17.3 mph N/A   Clear
11:15 AM 41.0 °F 34.3 °F 28.8 °F 62% 30.15 in 10.0 mi SSE 11.5 mph 21.9 mph N/A   Clear
11:35 AM 41.9 °F 35.4 °F 28.9 °F 60% 30.14 in 10.0 mi South 11.5 mph 20.7 mph N/A   Clear
11:55 AM 42.1 °F 34.5 °F 29.3 °F 61% 30.13 in 10.0 mi South 15.0 mph 20.7 mph N/A   Clear
12:15 PM 42.8 °F 37.0 °F 29.7 °F 60% 30.11 in 10.0 mi South 10.4 mph 19.6 mph N/A   Clear
12:35 PM 43.2 °F 35.9 °F 29.8 °F 59% 30.10 in 7.0 mi SSE 15.0 mph - N/A   Clear
12:36 PM 43.2 °F 36.6 °F 29.8 °F 59% 30.11 in 7.0 mi SSE 12.7 mph 17.3 mph N/A   Clear
12:55 PM 43.7 °F 36.6 °F 30.2 °F 59% 30.09 in 7.0 mi SSE 15.0 mph - N/A   Clear
12:56 PM 43.9 °F 37.2 °F 30.2 °F 59% 30.09 in 7.0 mi SSE 13.8 mph 19.6 mph N/A   Clear
1:15 PM 44.2 °F 38.4 °F 30.4 °F 58% 30.09 in 10.0 mi SSE 11.5 mph 20.7 mph N/A   Clear
1:35 PM 44.6 °F 39.2 °F 30.2 °F 57% 30.06 in 10.0 mi SSE 10.4 mph 20.7 mph N/A   Clear
1:36 PM 44.6 °F 39.2 °F 30.2 °F 57% 30.06 in 10.0 mi SSE 10.4 mph 20.7 mph N/A   Clear
1:55 PM 44.6 °F 39.2 °F 30.6 °F 58% 30.05 in 10.0 mi SSE 10.4 mph 19.6 mph N/A   Clear
2:15 PM 45.0 °F 39.7 °F 30.9 °F 58% 30.05 in 10.0 mi SSE 10.4 mph 17.3 mph N/A   Clear
2:35 PM 45.0 °F 39.3 °F 30.7 °F 57% 30.04 in 10.0 mi SSE 11.5 mph 21.9 mph N/A   Clear
2:55 PM 44.6 °F 38.4 °F 30.9 °F 59% 30.04 in 10.0 mi SSE 12.7 mph 19.6 mph N/A   Clear
3:15 PM 44.2 °F 38.0 °F 30.9 °F 60% 30.03 in 7.0 mi SSE 12.7 mph 18.4 mph N/A   Clear
3:16 PM 44.2 °F 38.8 °F 30.9 °F 60% 30.03 in 7.0 mi SSE 10.4 mph 18.4 mph N/A   Clear
3:35 PM 43.7 °F 39.1 °F 30.9 °F 61% 30.02 in 10.0 mi SSE 8.1 mph 18.4 mph N/A   Clear
3:55 PM 43.2 °F 37.4 °F 30.9 °F 62% 30.02 in 7.0 mi SSE 10.4 mph 16.1 mph N/A   Clear
4:35 PM 42.8 °F 37.5 °F 31.1 °F 63% 30.03 in 10.0 mi SSE 9.2 mph - N/A   Clear
4:36 PM 42.8 °F 37.5 °F 31.1 °F 63% 30.03 in 10.0 mi South 9.2 mph - N/A   Clear
4:55 PM 42.4 °F 38.1 °F 31.1 °F 64% 30.03 in 10.0 mi SSE 6.9 mph - N/A   Clear
4:56 PM 42.4 °F 38.1 °F 31.1 °F 64% 30.03 in 10.0 mi SSE 6.9 mph - N/A   Clear
5:15 PM 41.9 °F 35.9 °F 31.1 °F 66% 30.01 in 10.0 mi SSE 10.4 mph 16.1 mph N/A   Scattered Clouds
5:35 PM 41.4 °F 36.8 °F 31.5 °F 68% 30.01 in 10.0 mi SSE 6.9 mph - N/A   Scattered Clouds
5:36 PM 41.4 °F 36.2 °F 31.6 °F 68% 30.01 in 10.0 mi SSE 8.1 mph - N/A   Scattered Clouds
5:55 PM 40.5 °F 34.6 °F 31.6 °F 71% 30.03 in 7.0 mi SSE 9.2 mph - N/A   Clear
5:56 PM 40.5 °F 35.1 °F 31.8 °F 71% 30.03 in 10.0 mi South 8.1 mph - N/A   Clear
6:15 PM 40.1 °F 34.1 °F 32.0 °F 73% 30.04 in 10.0 mi SSE 9.2 mph - N/A   Clear
6:16 PM 40.1 °F 34.1 °F 32.0 °F 73% 30.04 in 10.0 mi SSE 9.2 mph - N/A   Clear
6:35 PM 39.4 °F 34.5 °F 32.0 °F 75% 30.05 in 10.0 mi SSE 6.9 mph - N/A   Clear
6:36 PM 39.4 °F 33.8 °F 32.0 °F 75% 30.05 in 10.0 mi SSE 8.1 mph - N/A   Clear
6:55 PM 38.8 °F 33.8 °F 32.0 °F 76% 30.04 in 10.0 mi SSE 6.9 mph - N/A   Clear
6:56 PM 38.8 °F 33.8 °F 32.0 °F 76% 30.04 in 10.0 mi SSE 6.9 mph - N/A   Clear
7:15 PM 38.3 °F 32.5 °F 32.0 °F 78% 30.04 in 7.0 mi South 8.1 mph - N/A   Clear
7:35 PM 38.3 °F 33.2 °F 32.0 °F 78% 30.04 in 7.0 mi SSE 6.9 mph - N/A   Clear
7:55 PM 38.3 °F 33.9 °F 32.0 °F 78% 30.03 in 7.0 mi SSE 5.8 mph - N/A   Clear
8:15 PM 37.9 °F 32.1 °F 32.0 °F 79% 30.02 in 7.0 mi SSE 8.1 mph 16.1 mph N/A   Clear
8:35 PM 37.6 °F 31.0 °F 32.0 °F 80% 30.02 in 7.0 mi SSE 9.2 mph - N/A   Clear
8:36 PM 37.6 °F 30.5 °F 32.0 °F 80% 30.02 in 7.0 mi SSE 10.4 mph - N/A   Clear
8:55 PM 37.4 °F 32.8 °F 32.0 °F 81% 30.02 in 7.0 mi SSE 5.8 mph - N/A   Clear
8:56 PM 37.2 °F 31.9 °F 32.0 °F 81% 30.02 in 7.0 mi SSE 6.9 mph - N/A   Clear
9:15 PM 36.5 °F 31.0 °F 31.8 °F 83% 30.01 in 7.0 mi SSE 6.9 mph - N/A   Clear
9:35 PM 36.7 °F 29.9 °F 31.8 °F 83% 30.01 in 7.0 mi SSE 9.2 mph - N/A   Clear
9:55 PM 37.0 °F 30.4 °F 31.8 °F 81% 30.00 in 7.0 mi SSE 9.2 mph - N/A   Clear
10:15 PM 37.2 °F 31.2 °F 31.8 °F 81% 30.00 in 7.0 mi SSE 8.1 mph - N/A   Clear
10:35 PM 37.0 °F 32.4 °F 31.6 °F 81% 29.99 in 7.0 mi SSE 5.8 mph - N/A   Clear
10:55 PM 37.2 °F 31.9 °F 31.6 °F 80% 29.99 in 7.0 mi SSE 6.9 mph - N/A   Clear
11:15 PM 37.4 °F 30.8 °F 31.6 °F 80% 29.98 in 7.0 mi SSE 9.2 mph - N/A   Clear
11:35 PM 37.9 °F 30.9 °F 31.3 °F 77% 29.97 in 7.0 mi South 10.4 mph - N/A   Clear
11:36 PM 37.9 °F 31.5 °F 31.3 °F 77% 29.97 in 7.0 mi SSE 9.2 mph - N/A   Clear
11:55 PM 38.1 °F 31.7 °F 31.1 °F 76% 29.97 in 7.0 mi SSE 9.2 mph - N/A   Clear
11:56 PM 38.3 °F 32.5 °F 31.1 °F 75% 29.97 in 7.0 mi SSE 8.1 mph - N/A   Clear